This is the latest recevied weather packets stored in our database for station/object G4KVI. If no packets are shown the sender has not sent any weather packets the latest 10 day(s).
| Time | Temp. | Humidity | Pressure | Rain* | Wind** | Luminosity | Snow |
|---|---|---|---|---|---|---|---|
| 1777729505 | 17.22° C | 55% | 1015.9 hPa | 0 mm | - | 140 W/m² | - |
| 1777729205 | 17.22° C | 55% | 1016 hPa | 0 mm | - | 146 W/m² | - |
| 1777728905 | 17.22° C | 55% | 1016 hPa | 0 mm | - | 162 W/m² | - |
| 1777728605 | 17.22° C | 55% | 1016.2 hPa | 0 mm | - | 191 W/m² | - |
| 1777728305 | 17.78° C | 55% | 1016.1 hPa | 0 mm | - | 211 W/m² | - |
| 1777728005 | 17.78° C | 54% | 1016.2 hPa | 0 mm | - | 205 W/m² | - |
| 1777727705 | 17.22° C | 56% | 1016.3 hPa | 0 mm | - | 217 W/m² | - |
| 1777727405 | 17.78° C | 55% | 1016.4 hPa | 0 mm | - | 228 W/m² | - |
| 1777727105 | 17.78° C | 56% | 1016.5 hPa | 0 mm | - | 224 W/m² | - |
| 1777726805 | 17.78° C | 56% | 1016.6 hPa | 0 mm | - | 248 W/m² | - |
| 1777726505 | 17.78° C | 57% | 1016.5 hPa | 0 mm | - | 252 W/m² | - |
| 1777726205 | 17.78° C | 58% | 1016.6 hPa | 0 mm | - | 261 W/m² | - |
| 1777725905 | 17.22° C | 58% | 1016.8 hPa | 0 mm | - | 297 W/m² | - |
| 1777725605 | 17.78° C | 57% | 1016.8 hPa | 0 mm | - | 342 W/m² | - |
| 1777725305 | 17.78° C | 56% | 1016.7 hPa | 0 mm | - | 384 W/m² | - |
| 1777725005 | 17.78° C | 56% | 1016.9 hPa | 0 mm | - | 383 W/m² | - |
| 1777724705 | 17.22° C | 56% | 1017.1 hPa | 0 mm | - | 399 W/m² | - |
| 1777724405 | 17.78° C | 56% | 1017 hPa | 0 mm | - | 367 W/m² | - |
| 1777724105 | 17.78° C | 55% | 1017.1 hPa | 0 mm | - | 358 W/m² | - |
| 1777723805 | 17.78° C | 57% | 1017.1 hPa | 0 mm | - | 334 W/m² | - |
| 1777723505 | 17.78° C | 55% | 1017.4 hPa | 0 mm | - | 302 W/m² | - |
| 1777723205 | 17.78° C | 55% | 1017.6 hPa | 0 mm | - | 302 W/m² | - |
| 1777722905 | 17.78° C | 55% | 1017.4 hPa | 0 mm | - | 302 W/m² | - |
| 1777722605 | 17.78° C | 56% | 1017.6 hPa | 0 mm | - | 351 W/m² | - |
| 1777722305 | 17.78° C | 56% | 1017.6 hPa | 0 mm | - | 519 W/m² | - |
* Rain latest hour (hover to see other rain measurements)
** Current wind speed in m/s (hover to see current wind gust speed)